Vorticity
nan nan nan nan nan nan nan nan nan nan nan nan nan nan nan nan nan nan nan nan nan nan nan nan nan nan nan nan nan nan nan nan nan nan nan nan nan nan nan nan nan nan nan nan nan
nan 7 7 7 7 6 5 5 6 7 7 6 6 6 7 7 14 25 28 17 11 21 10 8 8 5 4 8 10 5 4 5 4 7 3 3 7 11 7 6 9 7 16 6 nan
nan 7 7 7 7 7 7 7 7 6 6 6 6 7 8 12 22 23 21 31 26 6 3 4 4 5 7 5 7 4 0 4 5 1 3 7 8 13 10 7 9 9 6 3 nan
nan 7 7 7 8 7 7 8 8 8 8 8 8 8 10 16 12 1 3 15 20 9 10 9 9 7 6 6 4 4 7 1 -0 3 8 8 4 11 7 9 8 10 4 8 nan
nan 7 7 7 8 7 8 8 7 8 9 10 11 11 13 9 4 -1 -1 1 3 11 13 10 7 8 8 6 6 8 5 7 5 4 4 4 11 7 6 9 -1 6 14 10 nan
nan 5 6 7 6 6 7 7 7 9 9 11 11 12 7 1 10 3 13 10 -2 5 5 5 6 4 10 10 6 7 6 7 8 7 6 7 6 6 11 2 9 7 2 12 nan
nan 6 6 7 7 7 7 6 6 6 9 15 17 12 13 7 -9 -0 20 15 6 2 8 3 2 3 6 7 11 6 8 14 12 6 5 6 7 11 6 8 8 8 6 3 nan
nan 7 7 8 9 9 10 8 9 9 11 18 20 11 7 18 9 11 7 4 11 8 5 6 12 8 2 5 14 14 14 11 8 9 12 9 5 11 5 10 10 8 7 7 nan
nan 8 7 8 9 9 10 11 14 27 21 18 14 9 7 13 11 12 9 12 9 6 3 9 11 13 15 12 12 15 13 9 6 12 11 7 6 7 13 9 7 9 8 9 nan
nan 8 8 8 10 10 17 23 34 28 18 3 -1 1 -4 -12 -7 6 17 13 7 11 14 11 6 11 9 12 8 7 4 4 9 11 10 7 8 7 9 11 12 7 8 7 nan
nan 8 8 9 11 15 20 19 26 8 -4 3 8 -3 -6 2 3 3 10 9 7 7 13 8 8 12 9 0 -2 -1 6 6 7 2 13 11 8 9 6 11 12 11 7 8 nan
nan 8 9 11 12 20 14 7 8 10 5 17 24 23 21 22 16 21 17 12 9 8 6 8 7 1 6 8 7 3 4 4 9 15 9 7 12 10 9 6 8 12 11 7 nan
nan 8 9 13 23 18 9 4 8 19 19 27 20 13 17 15 27 21 18 18 15 11 10 9 8 7 4 7 10 13 7 5 7 8 13 15 13 14 12 8 6 8 11 12 nan
nan 9 10 17 21 10 4 9 14 13 15 15 16 3 0 7 11 3 8 22 16 16 14 3 3 12 19 12 7 8 11 10 6 6 11 5 15 17 13 7 7 11 10 11 nan
nan 9 14 22 12 3 5 13 16 8 6 -8 0 9 9 15 10 30 26 7 18 13 12 10 12 13 12 14 11 14 11 9 11 8 6 8 5 17 13 8 11 9 6 9 nan
nan 8 19 20 6 7 11 14 13 8 0 -3 -2 5 14 13 17 24 18 16 12 5 14 10 10 8 10 17 22 16 10 18 15 15 16 13 7 9 10 9 7 6 10 12 nan
nan 11 22 18 5 7 11 13 6 0 5 4 4 10 17 8 14 15 14 20 12 11 5 12 15 14 8 8 15 8 13 24 17 11 15 13 5 12 8 8 11 11 9 8 nan
nan 32 25 9 7 9 13 15 4 -2 6 5 12 23 5 3 6 6 20 14 14 16 17 15 16 18 12 14 8 11 8 6 9 3 8 15 14 1 9 8 8 12 13 11 nan
nan 29 13 7 9 9 16 11 4 4 2 6 15 16 -1 3 7 13 21 12 9 7 7 11 5 24 24 23 6 5 9 4 11 11 13 15 12 14 10 8 15 13 16 9 nan
nan 11 8 4 9 13 14 3 -1 4 5 13 11 0 -1 6 5 11 12 6 2 1 13 13 14 9 14 10 24 19 9 11 11 16 12 19 19 16 15 5 8 19 18 12 nan
nan 8 7 8 16 17 4 1 4 6 8 10 13 9 6 4 1 5 5 7 2 2 10 20 18 -0 10 12 15 17 9 6 4 3 14 14 26 20 6 9 12 21 20 19 nan
nan 6 6 11 17 8 1 7 11 7 12 13 17 9 5 5 8 13 6 4 -1 14 18 18 11 7 7 18 16 10 15 13 3 12 -3 6 10 26 21 6 15 13 20 19 nan
nan 10 5 6 12 5 5 6 10 12 8 17 6 1 11 19 13 9 -0 10 13 10 10 8 8 6 14 17 16 16 19 8 10 11 7 5 -6 -5 28 43 14 12 8 9 nan
nan 12 7 5 1 4 7 4 8 9 10 9 11 14 15 13 5 4 13 7 5 10 20 19 14 4 -0 4 12 9 18 16 13 2 13 4 -2 -3 20 47 8 9 9 8 nan
nan 11 9 5 -1 7 11 5 1 10 13 16 16 3 11 9 9 5 8 11 20 16 19 18 12 7 4 19 19 3 8 15 4 3 0 8 12 25 23 9 10 9 9 9 nan
nan 8 8 6 8 10 7 8 9 8 14 20 7 5 13 9 7 5 11 16 8 7 8 12 6 10 17 17 12 13 8 18 22 11 9 -0 9 17 25 10 13 9 9 8 nan
nan nan nan nan nan nan nan nan nan nan nan nan nan nan nan nan nan nan nan nan nan nan nan nan nan nan nan nan nan nan nan nan nan nan nan nan nan nan nan nan nan nan nan nan nan
CAPE
8 7 4 2 2 2 3 3 3 4 5 4 3 4 6 11 4 0 0 0 0 0 0 0 0 0 0 0 0 0 0 0 0 0 0 0 0 0 0 0 0 0 0 0 29
9 9 8 7 6 4 2 0 0 0 2 3 3 9 9 10 0 0 0 0 0 0 0 0 0 0 0 0 0 0 0 0 0 0 0 0 0 0 0 0 0 0 0 0 61
10 9 8 7 5 5 7 7 5 3 3 3 2 6 14 2 0 0 0 0 0 0 0 0 0 0 0 0 0 0 0 0 0 0 0 0 0 0 0 0 0 0 0 0 0
10 7 5 3 4 3 1 1 2 7 12 17 10 15 8 0 0 0 0 0 0 0 0 0 0 0 0 0 0 0 0 0 0 0 0 0 0 0 0 0 0 0 0 0 0
5 4 1 1 1 1 0 1 1 3 5 12 8 19 11 0 0 0 0 0 0 0 0 0 0 0 0 0 0 0 0 0 0 0 0 0 0 0 0 0 0 0 0 0 10
11 2 1 2 3 2 1 0 0 2 8 10 8 13 6 0 0 0 0 0 0 0 0 0 0 0 0 0 0 0 0 0 0 0 0 0 0 0 0 0 0 0 0 0 0
26 10 7 6 4 8 9 3 0 4 1 6 11 15 1 0 0 0 0 0 0 0 0 0 0 0 0 0 0 0 0 0 0 0 0 0 0 0 0 0 0 0 0 0 0
20 14 6 6 5 6 15 10 9 5 0 4 8 6 0 0 0 0 0 0 0 0 0 0 0 0 0 0 0 0 0 0 0 0 0 0 0 0 0 0 0 0 0 0 0
17 11 10 12 14 12 11 4 2 0 0 0 9 5 0 0 0 0 0 0 0 0 0 0 0 0 0 0 0 0 0 0 0 0 0 0 0 0 0 0 0 0 0 0 0
17 12 10 11 14 6 3 0 0 0 0 1 13 2 0 0 0 0 0 0 0 0 0 0 0 0 0 0 0 0 0 0 0 0 0 0 0 0 0 0 0 0 0 0 0
13 9 10 6 3 0 0 0 0 0 0 0 0 12 0 0 0 0 0 0 0 2 0 0 0 0 0 0 0 0 0 0 0 0 0 0 0 0 0 0 0 0 0 0 0
7 7 8 1 0 0 0 1 2 4 0 0 0 0 0 0 0 0 0 0 0 2 16 4 2 0 0 0 0 0 0 0 0 0 0 0 0 0 0 0 0 0 0 0 0
6 3 2 0 0 0 1 0 0 0 0 0 0 32 44 35 36 34 13 0 0 0 29 59 6 0 0 0 0 0 0 0 0 0 0 1 0 0 0 0 0 0 0 0 0
5 2 0 1 0 0 0 1 0 0 2 57 66 13 9 12 21 58 91 56 3 0 75 84 36 30 30 1 4 2 0 0 0 0 0 4 10 0 0 0 0 0 0 0 0
3 1 0 0 0 0 0 0 0 0 54 0 1 0 4 14 13 41 19 59 127 52 58 3 72 72 130 37 9 10 0 0 0 0 0 0 57 0 0 0 0 0 0 0 0
2 0 0 0 0 0 0 0 0 34 25 10 0 0 43 30 125 187 73 24 50 56 25 68 30 33 20 19 62 20 22 9 11 7 36 0 38 11 1 0 0 0 0 0 0
1 0 0 0 0 0 0 1 48 67 4 0 0 0 1 19 70 56 207 55 0 62 60 0 0 6 68 75 89 49 25 74 60 44 52 7 1 5 0 0 0 0 0 0 0
1 0 0 0 0 0 0 21 5 4 3 0 0 0 7 12 7 29 81 9 15 13 242 251 137 116 11 46 121 162 105 128 54 49 15 11 40 0 0 0 0 0 0 0 0
0 0 0 0 0 0 0 1 3 2 0 0 0 0 0 2 22 24 0 2 44 0 12 73 41 8 53 43 117 126 113 68 165 101 104 34 19 2 0 0 3 0 0 0 0
0 0 0 0 0 0 7 0 3 3 1 10 11 13 16 17 17 30 38 119 216 76 44 45 18 20 14 33 188 143 121 133 410 301 33 47 183 10 0 9 29 5 0 0 0
0 0 0 0 0 14 33 14 8 5 16 16 23 19 21 23 13 27 34 77 158 40 40 42 52 3 13 22 163 45 164 135 198 135 60 68 41 18 7 0 35 87 2 0 0
0 0 0 0 1 7 6 5 2 23 20 1 11 18 39 43 32 28 36 49 49 19 14 53 43 13 0 0 41 64 213 187 245 70 2 19 31 185 23 165 141 384 995 1266 1188
2 0 0 0 0 0 1 5 15 22 3 1 12 10 13 18 21 49 24 17 5 27 4 25 37 12 2 4 139 206 171 192 419 224 41 7 79 158 250 141 1279 1396 1174 785 832
3 0 0 0 0 4 6 8 18 18 0 2 6 15 30 53 18 13 12 6 7 4 1 18 37 24 13 13 8 47 97 235 105 130 113 0 19 0 154 1116 1370 892 764 783 898
0 0 5 0 0 5 3 28 11 24 20 21 19 18 25 16 32 8 8 8 1 2 14 41 33 30 48 34 22 46 46 20 96 21 99 94 22 0 283 719 525 415 720 760 754
8 26 17 17 0 3 11 6 15 14 41 18 28 29 23 7 21 8 35 16 22 1 10 4 17 6 4 21 55 45 74 50 22 13 19 1 26 170 95 424 573 656 851 899 659
39 0 8 6 4 0 9 8 17 32 3 15 30 22 31 36 29 33 27 21 18 8 7 19 25 23 4 8 0 1 4 13 30 125 138 13 0 0 64 300 511 614 187 5 0